Regional Weather Roundup
Issued by NWS

Home | Current Version | Previous Version | Text Only | Print | Product List | Glossary On
Versions: 1 2 3 4 5 6 7 8 9 10 11 12 13 14 15 16 17 18 19 20 21 22 23 24 25 26 27 28 29 30 31 32 33 34 35 36 37 38 39 40 41 42 43 44 45 46 47 48 49 50
972
ASUS43 KDMX 062306
RWRIA

WEATHER ROUNDUP FOR IOWA
NATIONAL WEATHER SERVICE DES MOINES IA
500 PM CST TUE DEC 06 2016

NOTE: "FAIR" INDICATES FEW OR NO CLOUDS BELOW 12,000 FEET WITH NO
SIGNIFICANT WEATHER AND/OR OBSTRUCTIONS TO VISIBILITY.

* - THESE STATIONS ARE NOT NWS STATIONS...THUS NOT UNDER NWS
QUALITY CONTROL.  THEY ALSO DO NOT REPORT WEATHER SUCH
AS PRECIPITATION OR FOG.

IAZ001>003-012>014-020>022-031>034-043>046-070000-
   NORTHWEST IOWA

CITY           SKY/WX    TMP DP  RH WIND       PRES   REMARKS
CARROLL *      CLEAR     27  16  63 W16       29.95R WCI  14
CHEROKEE *     CLEAR     23  11  61 W17G25    29.95R WCI   9
DENISON *      CLEAR     27  12  54 W14       29.96R WCI  15
LE MARS *      CLEAR     23  10  58 W17       29.98R WCI   9
ORANGE CITY *  CLEAR     19  12  73 W21G30    29.92R WCI   3
SHELDON *      PTCLDY    19  12  73 W24G33    29.89R WCI   2
SIOUX CITY     CLEAR     27  11  51 NW18G24   29.98R WCI  14
SPENCER        CLEAR     21  12  68 W26G43    29.88S WCI   4
STORM LAKE *   MIX PCPN  23  12  63 W24G31    29.92R WCI   7
$$

IAZ055>058-069>071-079>083-090>094-070000-
   SOUTHWEST IOWA

CITY           SKY/WX    TMP DP  RH WIND       PRES   REMARKS
ATLANTIC *     CLEAR     28  14  54 W12       30.01R WCI  18
AUDUBON *      CLEAR     27  16  63 W6        29.97S WCI  20
CLARINDA *     CLEAR     32  14  47 W8        30.05R WCI  25
COUNCIL BLFS * CLEAR     30  10  43 W13G22    30.01R WCI  20
CRESTON *      CLEAR     28  14  54 W9        30.01R WCI  20
HARLAN  *      CLEAR     28  16  59 W12G17    30.02R WCI  18
LAMONI         CLEAR     30  16  56 W12       30.00R WCI  20
RED OAK *      CLEAR     32  14  47 W10       30.03R WCI  24
SHENANDOAH *   CLEAR     32  14  47 W9        30.05R WCI  24
$$

IAZ047>049-059>061-072>074-084-070000-
   CENTRAL IOWA

CITY           SKY/WX    TMP DP  RH WIND       PRES   REMARKS
AMES           CLEAR     28  18  66 MISG      29.95R
ANKENY *       CLEAR     30  14  51 W14       29.97R WCI  20
BOONE *        CLEAR     27  16  63 W16G22    29.93R WCI  14
CHARITON *       N/A     30  16  55 W10       29.98R WCI  21
DES MOINES     CLEAR     31  14  49 W12       29.97R WCI  22
GRINNELL*      CLEAR     29  19  65 W13G21    29.94R WCI  19
KNOXVILLE *    CLEAR     30  16  55 W10       29.96R WCI  21
MARSHALLTOWN   CLEAR     27  18  69 W14       29.92R WCI  16
NEWTON *       CLEAR     28  18  64 W14G21    29.95R WCI  17
PELLA *        CLEAR     31  17  54 W15       29.98R WCI  21
PERRY *          N/A     29  20  70 W16G22    29.96S WCI  17
$$

IAZ004>006-015-016-023>025-035-036-070000-
   NORTH CENTRAL IOWA

CITY           SKY/WX    TMP DP  RH WIND       PRES   REMARKS
ALGONA *       CLEAR     23  14  68 W20G30    29.89R WCI   8
CLARION *      CLEAR     25  16  68 W17G25    29.90R WCI  11
ESTHERVILLE    PTCLDY    21  13  71 W23G37    29.86R WCI   5
FORT DODGE *   CLEAR     25  12  58 W13G20    29.93R WCI  13
MASON CITY     CLEAR     23  14  68 W24G31    29.87R WCI   7
FOREST CITY *    N/A     23  16  74 W16G23    29.85S WCI  10
WEBSTER CITY * CLEAR     27  16  63 W17G26    29.91R WCI  14
IOWA FALLS *     N/A     27  18  70 W23       29.92R WCI  12
$$

IAZ007>011-017>019-026>030-037>042-050>054-066-070000-
   NORTHEAST IOWA

CITY           SKY/WX    TMP DP  RH WIND       PRES   REMARKS
CEDAR RAPIDS   CLEAR     27  22  81 W16       29.92R WCI  15
CHARLES CITY * CLOUDY    25  18  74 W21G30    29.86R WCI  10
CLINTON *      PTCLDY    29  24  82 W16       29.92R WCI  17
DECORAH *      CLOUDY    25  16  68 W13G21    29.83R WCI  13
DUBUQUE        MOCLDY    25  17  72 W23G32    29.88R WCI  10
MONTICELLO *   PTCLDY    27  21  80 W12       29.90R WCI  16
OELWEIN *      CLOUDY    25  19  80 W17       29.88R WCI  11
WATERLOO       MOCLDY    26  17  68 W16       29.91R WCI  14
$$

IAZ064-065-067-068-078-070000-
   EAST CENTRAL IOWA

CITY           SKY/WX    TMP DP  RH WIND       PRES   REMARKS
DAVENPORT      CLEAR     30  22  72 W18       29.93R WCI  18
IOWA CITY      CLEAR     30  20  66 W12       29.96R WCI  20
MUSCATINE *    CLEAR     30  19  64 W10G16    29.97R WCI  21
QUAD CITIES    CLEAR     32  21  64 W14G22    29.93R WCI  22
$$

IAZ062-063-075>077-085>089-095>099-070000-
   SOUTHEAST IOWA

CITY           SKY/WX    TMP DP  RH WIND       PRES   REMARKS
BURLINGTON     CLEAR     33  20  58 W7        29.96R WCI  27
FAIRFIELD *    CLEAR     30  18  59 W9        29.96R WCI  22
FORT MADISON * CLEAR     34  21  60 W9        29.99R WCI  26
KEOKUK *       CLEAR     34  19  55 W12       29.98R WCI  25
OSKALOOSA *      N/A     30  20  66 W13       29.97R WCI  20
CENTERVILLE *    N/A     30  18  59 SW9       30.00R WCI  22
OTTUMWA        CLEAR     31  17  56 W10       29.97R WCI  22
WASHINGTON *   CLEAR     30  19  64 W9        29.97R WCI  22
$$

ABBREVIATIONS USED IN REMARKS
   TC - TEMPERATURES IN CELSIUS
  WCI - WIND CHILL INDEX
   HX - HEAT INDEX
  VSB - VISIBILITY
$$





USA.gov is the U.S. government's official web portal to all federal, state and local government web resources and services.